User: anonymous   Login
Location: Terra Rouge Observatory
(46.0000°N, 62.7500°W)
Time: 05:11:53
(UTC-04:00)
Language:

Landsat 5 - Orbit

View from above orbital plane
View from above orbital plane
View from above satellite
View from above satellite

Ground track
Ground track

The orbit data is extracted from the following two-line orbital elements,

1 14780U 84021A   16037.18260321  .00000632  00000-0  65330-4 0  9997
2 14780  98.0230 134.3915 0092032   6.3560 353.8801 14.90919410701808
Epoch (UTC): 06 February 2016 04:22:56
Eccentricity: 0.0092032
inclination: 98.0230°
perigee height: 531 km
apogee height: 659 km
right ascension of ascending node: 134.3915°
argument of perigee: 6.3560°
revolutions per day: 14.90919410
mean anomaly at epoch: 353.8801°
orbit number at epoch: 70180

The dashed part of the orbit path shows where the satellite is in the earth's shadow,  

DLR